Location: Newark
(50.0336°N, 22.0047°E)
Time: 19:57:01
(UTC+00:00)

N. Korean satellite - Pass Details

Date: 25 January 2020
Orbit: 456 x 506 km, 97.2° (Epoch: 17 February)

Event Time Altitude Azimuth Distance (km) Brightness Sun altitude
Rises 16:21:06 0° 202° (SSW) 2,464 10.8 -10.8°
Reaches altitude 10° 16:23:36 10° 222° (SW) 1,596 10.2 -11.2°
Maximum altitude 16:26:02 18° 268° (W) 1,185 9.7 -11.6°
Drops below altitude 10° 16:28:30 10° 314° (NW) 1,611 9.6 -12.0°
Sets 16:31:02 0° 333° (NNW) 2,497 10.3 -12.4°
